Regional Weather Roundup
Issued by NWS Sioux Falls, SD

Home | Current Version | Previous Version | Graphics & Text | Print | Product List | Glossary Off
Versions: 1 2 3 4 5 6 7 8 9 10 11 12 13 14 15 16 17 18 19 20 21 22 23 24 25 26 27 28 29 30 31 32 33 34 35 36 37 38 39 40 41 42 43 44 45 46 47 48 49 50

000
ASUS43 KFSD 210110
RWRFSD

WEATHER ROUNDUP FOR SE SOUTH DAKOTA/SW MINNESOTA/NW IOWA
NATIONAL WEATHER SERVICE SIOUX FALLS SD
700 PM CST SAT DEC 20 2014

NOTE: "FAIR" INDICATES FEW OR NO CLOUDS BELOW 12,000 FEET WITH NO
SIGNIFICANT WEATHER AND OR OBSTRUCTIONS TO VISIBILITY.


SDZ038>040-050-052>070-210200-
SOUTHEAST SOUTH DAKOTA

CITY           SKY/WX    TMP DP  RH WIND       PRES   REMARKS
CHAMBERLAIN    PTCLDY    24  22  93 CALM      29.92S
HURON          CLOUDY    30  29  96 S14       29.95S FOG     WCI  19
MADISON        FOG       28  28 100 S18       29.96F VSB 1/4 WCI  16
MITCHELL       CLOUDY    32  31  96 S8        29.98R FOG     WCI  25
SIOUX FALLS    CLOUDY    30  29  96 S12       30.00F FOG     WCI  20
WINNER         FAIR      32  25  75 S6        29.90S WCI  26
YANKTON        CLOUDY    32  28  86 SE16      30.00F WCI  21
$$

MNZ071-072-080-081-089-090-097-098-210200-
SOUTHWEST MINNESOTA

CITY           SKY/WX    TMP DP  RH WIND       PRES   REMARKS
FAIRMONT       CLOUDY    32  27  80 S13       30.08S WCI  22
JACKSON        CLOUDY    32  30  93 S15       30.05F WCI  22
LUVERNE        CLOUDY    32  30  93 S10G17    30.02F FOG     WCI  24
MARSHALL       CLOUDY    30  27  86 S15G22    30.02F WCI  19
MONTEVIDEO     CLOUDY    30  30 100 SW12      30.03S WCI  21
PIPESTONE      CLOUDY    28  28 100 S7        29.99S FOG     WCI  21
REDWOOD FALLS  CLOUDY    32  28  85 S14       30.05F WCI  22
TRACY          CLOUDY    31  29  94 S13G18    30.03R WCI  21
WINDOM         CLOUDY    30  28  93 S12G20    30.04S WCI  21
WORTHINGTON    CLOUDY    30  28  93 S16       30.03F WCI  19
$$

IAZ001>003-012>014-020>022-031-032-NEZ013-014-SDZ071-210200-
NORTHWEST IOWA

CITY           SKY/WX    TMP DP  RH WIND       PRES   REMARKS
CHEROKEE       CLOUDY    32  32  99 S9        30.06F WCI  24
DENISON        CLOUDY    32  32 100 S12       30.06F FOG     WCI  23
ESTHERVILLE    CLOUDY    31  29  92 S14       30.06F WCI  21
LE MARS        CLOUDY    32  30  93 S10       30.05S FOG     WCI  24
ORANGE CITY    CLOUDY    32  30  93 S8        30.03F FOG     WCI  25
SHELDON        CLOUDY    30  32 100 S14       30.03S FOG     WCI  20
SIOUX CITY     CLOUDY    33  30  88 S12       30.06S FOG     WCI  24
SPENCER        CLOUDY    32  28  85 S13       30.06F WCI  22
STORM LAKE     CLOUDY    32  32 100 S13       30.07S FOG     WCI  22
$$

ABBREVIATIONS USED IN REMARKS
   TC - TEMPERATURE IN CELSIUS
  WCI - WIND CHILL INDEX
   HX - HEAT INDEX
  VSB - VISIBILITY




USA.gov is the U.S. government's official web portal to all federal, state and local government web resources and services.